Location: Newark
(44.9333°N, 0.5667°E)
Time: 05:26:39
(UTC+00:00)

N. Korean satellite - Pass Details

Date: 17 December 2019
Orbit: 454 x 508 km, 97.2° (Epoch: 20 January)

Event Time Altitude Azimuth Distance (km) Brightness Sun altitude
Rises 06:42:54 0° 358° (N) 2,522 9.9 -8.1°
Reaches altitude 10° 06:45:17 10° 343° (NNW) 1,631 8.8 -7.7°
Maximum altitude 06:48:00 21° 292° (WNW) 1,082 7.7 -7.3°
Drops below altitude 10° 06:50:40 10° 241° (WSW) 1,603 8.9 -6.9°
Sets 06:52:59 0° 225° (SW) 2,466 10.0 -6.5°
